EW7244 Weather Reports


time (UTC)temp
C
wind
direction
speed
KPH
gust
KPH
rain 1hr
cm
rain 24hr
cm
rain mn
cm
humidity
%
barometer
mb
20260502214554 12 239 0.0 0.0 0.00 0.00 0.00 67 1017.4
20260502213038 12 239 0.0 0.0 0.00 0.00 0.00 66 1017.3
20260502211525 13 239 0.0 0.0 0.00 0.00 0.00 65 1017.3
20260502210014 13 238 0.0 0.0 0.00 0.00 0.00 65 1017.3
20260502204509 13 238 0.0 0.0 0.00 0.00 0.00 63 1017.3
20260502203035 13 238 0.0 0.0 0.00 0.00 0.00 62 1017.3
20260502201535 13 238 0.0 0.0 0.00 0.00 0.00 64 1017.3
20260502200055 13 238 0.0 0.0 0.00 0.00 0.00 63 1017.3
20260502194518 13 238 0.0 0.0 0.00 0.00 0.00 64 1017.2
20260502193008 14 238 0.0 0.0 0.00 0.00 0.00 62 1017.1
20260502191528 14 238 0.0 0.0 0.00 0.00 0.00 63 1017.1
20260502190020 14 238 0.0 0.0 0.00 0.00 0.00 63 1017.0
20260502184532 15 236 0.0 0.0 0.00 0.00 0.00 60 1016.8
20260502183011 15 236 0.0 0.0 0.00 0.00 0.00 60 1016.7
20260502181515 15 236 0.0 0.0 0.00 0.00 0.00 60 1016.5
20260502163105 17 230 0.0 0.0 0.00 0.00 0.00 56 1016.5
20260502161539 17 230 0.0 0.0 0.00 0.00 0.00 53 1016.5
20260502151506 21 99 0.0 0.0 0.00 0.00 0.00 42 1016.9
20260502123052 20 107 0.0 6.4 0.00 0.00 0.00 39 1018.8
20260502121601 20 109 0.0 4.8 0.00 0.00 0.00 40 1019.0
20260502114550 19 217 0.0 0.0 0.00 0.00 0.00 43 1019.5
20260502113054 19 76 0.0 0.0 0.00 0.00 0.00 44 1019.7
20260502111552 18 69 0.0 0.0 0.00 0.00 0.00 43 1020.0
20260502110035 18 91 0.0 1.6 0.00 0.00 0.00 49 1020.2
20260502104521 18 98 0.0 0.0 0.00 0.00 0.00 44 1020.6
20260502103004 17 74 0.0 3.2 0.00 0.00 0.00 50 1020.8
20260502101554 17 90 0.0 0.0 0.00 0.00 0.00 50 1021.1
20260502070052 11 113 0.0 4.8 0.00 0.00 0.00 66 1023.6
20260502064557 10 92 0.0 0.0 0.00 0.00 0.00 70 1023.7
20260502063052 10 126 0.0 0.0 0.00 0.00 0.00 73 1023.8
20260502061545 10 128 0.0 0.0 0.00 0.00 0.00 71 1023.8
20260502060039 10 263 0.0 0.0 0.00 0.00 0.00 71 1023.9
20260502054535 10 271 0.0 0.0 0.00 0.00 0.00 73 1024.0
20260502053014 9 271 0.0 0.0 0.00 0.00 0.00 73 1024.0
20260502051514 8 271 0.0 0.0 0.00 0.00 0.00 76 1023.9
20260502050055 8 271 0.0 0.0 0.00 0.00 0.00 75 1023.9
20260502044552 7 271 0.0 0.0 0.00 0.00 0.00 78 1023.7
20260502043053 6 271 0.0 0.0 0.00 0.00 0.00 80 1023.8
20260502041545 6 271 0.0 0.0 0.00 0.00 0.00 79 1023.8
20260502040053 6 271 0.0 0.0 0.00 0.00 0.00 76 1023.6
20260502034553 6 271 0.0 0.0 0.00 0.00 0.00 77 1023.5
20260502033049 6 271 0.0 0.0 0.00 0.00 0.00 77 1023.6
20260502031544 6 271 0.0 0.0 0.00 0.00 0.00 76 1023.5
20260502030041 7 271 0.0 0.0 0.00 0.00 0.00 74 1023.6
20260502024557 7 271 0.0 0.0 0.00 0.00 0.00 73 1023.6
20260502023052 7 271 0.0 0.0 0.00 0.00 0.00 73 1023.6
20260502021549 7 271 0.0 0.0 0.00 0.00 0.00 71 1023.6
20260502020044 7 271 0.0 0.0 0.00 0.00 0.00 71 1023.5
20260502014601 7 271 0.0 0.0 0.00 0.00 0.00 71 1023.5
20260502013056 7 271 0.0 0.0 0.00 0.00 0.00 70 1023.5
20260502010043 7 272 0.0 0.0 0.00 0.00 0.00 70 1023.7
20260502004537 8 272 0.0 0.0 0.00 0.00 0.00 69 1023.6
20260502003020 8 271 0.0 1.6 0.00 0.00 0.00 68 1023.6
20260502001518 8 271 0.0 0.0 0.00 0.00 0.00 69 1023.7
20260502000113 8 271 0.0 0.0 0.00 0.00 0.00 69 1023.7
20260501234543 8 271 0.0 0.0 0.00 0.00 0.00 68 1023.6
20260501233101 8 271 0.0 0.0 0.00 0.00 0.00 67 1023.6
20260501231551 8 272 0.0 0.0 0.00 0.00 0.00 67 1023.6
20260501230043 9 273 0.0 0.0 0.00 0.00 0.00 67 1023.6
20260501224540 9 273 0.0 0.0 0.00 0.00 0.00 66 1023.6
20260501223055 9 273 0.0 0.0 0.00 0.00 0.00 66 1023.6
20260501221545 9 273 0.0 0.0 0.00 0.00 0.00 65 1023.3
20260501220047 9 273 0.0 0.0 0.00 0.00 0.00 66 1023.1